Time,TemperatureF,DewpointF,PressureIn,WindDirection,WindDirectionDegrees,WindSpeedMPH,WindSpeedGustMPH,Humidity,HourlyPrecipIn,Conditions,Clouds,dailyrainin,SoftwareType,DateUTC
2013-04-24 00:00:00,59.2,14.4,25.28,WSW,257,5.8,5.8,17,0.00,,---,0.00,VWS V14.00,2013-04-24 07:00:00,
2013-04-24 00:05:00,59.0,14.3,25.28,West,274,6.3,7.2,17,0.00,,---,0.00,VWS V14.00,2013-04-24 07:05:00,
2013-04-24 00:10:00,59.2,14.4,25.28,West,271,8.1,8.1,17,0.00,,---,0.00,VWS V14.00,2013-04-24 07:10:00,
2013-04-24 00:15:00,59.4,14.6,25.28,West,261,8.3,8.3,17,0.00,,---,0.00,VWS V14.00,2013-04-24 07:15:00,
2013-04-24 00:20:00,59.7,14.9,25.28,West,263,6.7,6.7,17,0.00,,---,0.00,VWS V14.00,2013-04-24 07:20:00,
2013-04-24 00:25:00,59.9,15.0,25.28,West,267,8.1,8.1,17,0.00,,---,0.00,VWS V14.00,2013-04-24 07:25:00,
2013-04-24 00:30:00,59.9,15.0,25.28,West,265,5.4,6.3,17,0.00,,---,0.00,VWS V14.00,2013-04-24 07:30:00,
2013-04-24 00:35:00,59.5,14.7,25.28,West,259,4.0,4.9,17,0.00,,---,0.00,VWS V14.00,2013-04-24 07:35:00,
2013-04-24 00:40:00,58.8,14.1,25.28,West,269,5.4,5.4,17,0.00,,---,0.00,VWS V14.00,2013-04-24 07:40:00,
2013-04-24 00:45:00,58.1,13.5,25.28,West,260,5.8,5.8,17,0.00,,---,0.00,VWS V14.00,2013-04-24 07:45:00,
2013-04-24 00:50:00,57.4,12.9,25.28,West,262,4.0,5.4,17,0.00,,---,0.00,VWS V14.00,2013-04-24 07:50:00,
2013-04-24 00:55:00,56.8,12.5,25.28,West,259,3.1,3.1,17,0.00,,---,0.00,VWS V14.00,2013-04-24 07:55:00,
2013-04-24 01:00:00,56.5,12.2,25.28,SW,235,2.2,3.1,17,0.00,,---,0.00,VWS V14.00,2013-04-24 08:00:00,
2013-04-24 01:05:00,56.3,12.1,25.28,SW,235,2.7,3.1,17,0.00,,---,0.00,VWS V14.00,2013-04-24 08:05:00,
2013-04-24 01:10:00,56.3,12.1,25.28,WSW,239,0.0,0.0,17,0.00,,---,0.00,VWS V14.00,2013-04-24 08:10:00,
2013-04-24 01:15:00,55.8,11.6,25.28,WSW,244,5.8,5.8,17,0.00,,---,0.00,VWS V14.00,2013-04-24 08:15:00,
2013-04-24 01:20:00,55.6,11.5,25.28,West,260,4.9,4.9,17,0.00,,---,0.00,VWS V14.00,2013-04-24 08:20:00,
2013-04-24 01:25:00,55.9,11.8,25.28,West,261,4.0,4.0,17,0.00,,---,0.00,VWS V14.00,2013-04-24 08:25:00,
2013-04-24 01:30:00,55.2,12.5,25.28,West,261,4.0,4.0,18,0.00,,---,0.00,VWS V14.00,2013-04-24 08:30:00,
2013-04-24 01:35:00,54.5,11.9,25.28,WSW,253,5.8,5.8,18,0.00,,---,0.00,VWS V14.00,2013-04-24 08:35:00,
2013-04-24 01:40:00,54.5,11.9,25.28,West,263,3.6,4.0,18,0.00,,---,0.00,VWS V14.00,2013-04-24 08:40:00,
2013-04-24 01:45:00,55.0,12.3,25.28,West,264,3.1,4.0,18,0.00,,---,0.00,VWS V14.00,2013-04-24 08:45:00,
2013-04-24 01:50:00,55.8,11.6,25.28,West,261,5.4,5.4,17,0.00,,---,0.00,VWS V14.00,2013-04-24 08:50:00,
2013-04-24 01:55:00,56.1,11.9,25.28,WSW,249,4.9,5.8,17,0.00,,---,0.00,VWS V14.00,2013-04-24 08:55:00,
2013-04-24 02:00:00,56.8,12.5,25.28,WSW,247,5.4,6.3,17,0.00,,---,0.00,VWS V14.00,2013-04-24 09:00:00,
2013-04-24 02:05:00,57.4,12.9,25.28,WSW,253,5.8,6.3,17,0.00,,---,0.00,VWS V14.00,2013-04-24 09:05:00,
2013-04-24 02:10:00,57.4,12.9,25.28,West,264,6.3,6.3,17,0.00,,---,0.00,VWS V14.00,2013-04-24 09:10:00,
2013-04-24 02:15:00,57.9,13.4,25.28,West,265,5.4,5.8,17,0.00,,---,0.00,VWS V14.00,2013-04-24 09:15:00,
2013-04-24 02:20:00,59.4,14.6,25.28,WSW,246,6.3,6.3,17,0.00,,---,0.00,VWS V14.00,2013-04-24 09:20:00,
2013-04-24 02:25:00,59.9,15.0,25.28,WSW,251,6.3,6.3,17,0.00,,---,0.00,VWS V14.00,2013-04-24 09:25:00,
2013-04-24 02:30:00,58.5,13.8,25.28,West,259,5.4,7.6,17,0.00,,---,0.00,VWS V14.00,2013-04-24 09:30:00,
2013-04-24 02:35:00,57.9,13.4,25.28,West,259,6.3,6.3,17,0.00,,---,0.00,VWS V14.00,2013-04-24 09:35:00,
2013-04-24 02:40:00,58.1,13.5,25.28,WNW,284,2.7,3.6,17,0.00,,---,0.00,VWS V14.00,2013-04-24 09:40:00,
2013-04-24 02:45:00,57.4,12.9,25.28,WNW,284,0.0,0.0,17,0.00,,---,0.00,VWS V14.00,2013-04-24 09:45:00,
2013-04-24 02:50:00,56.7,12.4,25.28,WNW,284,0.0,0.0,17,0.00,,---,0.00,VWS V14.00,2013-04-24 09:50:00,
2013-04-24 02:55:00,55.8,11.6,25.28,WNW,284,0.0,0.0,17,0.00,,---,0.00,VWS V14.00,2013-04-24 09:55:00,
2013-04-24 03:00:00,55.4,11.3,25.28,WNW,284,0.0,0.0,17,0.00,,---,0.00,VWS V14.00,2013-04-24 10:00:00,
2013-04-24 03:05:00,54.5,11.9,25.28,WSW,257,4.0,4.0,18,0.00,,---,0.00,VWS V14.00,2013-04-24 10:05:00,
2013-04-24 03:10:00,54.1,11.6,25.28,WSW,257,0.0,0.0,18,0.00,,---,0.00,VWS V14.00,2013-04-24 10:10:00,
2013-04-24 03:18:00,53.1,10.7,25.28,WSW,257,0.0,0.0,18,0.00,,---,0.00,VWS V14.00,2013-04-24 10:18:00,
2013-04-24 03:23:00,52.9,10.6,25.28,WSW,256,0.0,0.0,18,0.00,,---,0.00,VWS V14.00,2013-04-24 10:23:00,
2013-04-24 03:28:00,52.9,10.6,25.28,WSW,240,0.0,0.0,18,0.00,,---,0.00,VWS V14.00,2013-04-24 10:28:00,
2013-04-24 03:33:00,52.9,10.6,25.28,WSW,240,4.0,4.0,18,0.00,,---,0.00,VWS V14.00,2013-04-24 10:33:00,
2013-04-24 03:38:00,52.2,10.0,25.28,WSW,240,0.0,0.0,18,0.00,,---,0.00,VWS V14.00,2013-04-24 10:38:00,
2013-04-24 03:43:00,51.6,10.7,25.28,WSW,246,3.1,3.1,19,0.00,,---,0.00,VWS V14.00,2013-04-24 10:43:00,
2013-04-24 03:48:00,51.4,10.6,25.28,WSW,246,3.6,4.0,19,0.00,,---,0.00,VWS V14.00,2013-04-24 10:48:00,
2013-04-24 03:53:00,51.3,10.4,25.28,WSW,246,0.0,0.0,19,0.00,,---,0.00,VWS V14.00,2013-04-24 10:53:00,
2013-04-24 03:58:00,51.1,10.3,25.28,WSW,246,2.7,2.7,19,0.00,,---,0.00,VWS V14.00,2013-04-24 10:58:00,
2013-04-24 04:03:00,51.3,10.4,25.28,WSW,246,0.0,0.0,19,0.00,,---,0.00,VWS V14.00,2013-04-24 11:03:00,
2013-04-24 04:08:00,51.4,10.6,25.28,WSW,246,0.0,0.0,19,0.00,,---,0.00,VWS V14.00,2013-04-24 11:08:00,
2013-04-24 04:13:00,52.0,9.8,25.28,WSW,246,0.0,0.0,18,0.00,,---,0.00,VWS V14.00,2013-04-24 11:13:00,
2013-04-24 04:18:00,52.7,10.4,25.28,WSW,247,0.0,0.0,18,0.00,,---,0.00,VWS V14.00,2013-04-24 11:18:00,
2013-04-24 04:23:00,52.3,10.1,25.28,WSW,247,0.0,0.0,18,0.00,,---,0.00,VWS V14.00,2013-04-24 11:23:00,
2013-04-24 04:28:00,51.4,10.6,25.28,WSW,247,0.0,0.0,19,0.00,,---,0.00,VWS V14.00,2013-04-24 11:28:00,
2013-04-24 04:33:00,51.1,10.3,25.28,WSW,247,0.0,0.0,19,0.00,,---,0.00,VWS V14.00,2013-04-24 11:33:00,
2013-04-24 04:38:00,50.9,10.1,25.28,WSW,247,0.0,0.0,19,0.00,,---,0.00,VWS V14.00,2013-04-24 11:38:00,
2013-04-24 04:43:00,51.3,10.4,25.28,WSW,247,0.0,0.0,19,0.00,,---,0.00,VWS V14.00,2013-04-24 11:43:00,
2013-04-24 04:48:00,51.3,10.4,25.28,WSW,247,0.0,0.0,19,0.00,,---,0.00,VWS V14.00,2013-04-24 11:48:00,
2013-04-24 04:53:00,51.3,10.4,25.28,WSW,247,0.0,0.0,19,0.00,,---,0.00,VWS V14.00,2013-04-24 11:53:00,
2013-04-24 04:58:00,51.3,10.4,25.28,WSW,247,0.0,0.0,19,0.00,,---,0.00,VWS V14.00,2013-04-24 11:58:00,
2013-04-24 05:03:00,51.1,10.3,25.28,WSW,247,0.0,0.0,19,0.00,,---,0.00,VWS V14.00,2013-04-24 12:03:00,
2013-04-24 05:08:00,50.7,10.0,25.28,WSW,247,0.0,0.0,19,0.00,,---,0.00,VWS V14.00,2013-04-24 12:08:00,
2013-04-24 05:13:00,50.2,9.5,25.28,WSW,247,0.0,0.0,19,0.00,,---,0.00,VWS V14.00,2013-04-24 12:13:00,
2013-04-24 05:18:00,49.6,9.1,25.28,WSW,247,0.0,0.0,19,0.00,,---,0.00,VWS V14.00,2013-04-24 12:18:00,
2013-04-24 05:23:00,49.1,8.6,25.28,WSW,247,0.0,0.0,19,0.00,,---,0.00,VWS V14.00,2013-04-24 12:23:00,
2013-04-24 05:28:00,49.5,8.9,25.28,WSW,247,0.0,0.0,19,0.00,,---,0.00,VWS V14.00,2013-04-24 12:28:00,
2013-04-24 05:33:00,49.3,8.8,25.28,WSW,247,4.9,4.9,19,0.00,,---,0.00,VWS V14.00,2013-04-24 12:33:00,
2013-04-24 05:38:00,49.5,8.9,25.28,WSW,248,2.2,3.1,19,0.00,,---,0.00,VWS V14.00,2013-04-24 12:38:00,
2013-04-24 05:43:00,49.6,9.1,25.31,WSW,248,3.1,4.0,19,0.00,,---,0.00,VWS V14.00,2013-04-24 12:43:00,
2013-04-24 05:48:00,49.8,9.2,25.31,WSW,248,0.0,2.7,19,0.00,,---,0.00,VWS V14.00,2013-04-24 12:48:00,
2013-04-24 05:53:00,50.4,9.7,25.31,WSW,248,0.0,0.0,19,0.00,,---,0.00,VWS V14.00,2013-04-24 12:53:00,
2013-04-24 05:58:00,50.5,9.8,25.31,WSW,248,0.0,0.0,19,0.00,,---,0.00,VWS V14.00,2013-04-24 12:58:00,
2013-04-24 06:03:00,50.9,10.1,25.31,WSW,248,0.0,0.0,19,0.00,,---,0.00,VWS V14.00,2013-04-24 13:03:00,
2013-04-24 06:08:00,51.6,10.7,25.31,WSW,248,0.0,0.0,19,0.00,,---,0.00,VWS V14.00,2013-04-24 13:08:00,
2013-04-24 06:13:00,52.3,10.1,25.31,WSW,248,0.0,0.0,18,0.00,,---,0.00,VWS V14.00,2013-04-24 13:13:00,
2013-04-24 06:18:00,53.1,10.7,25.31,WSW,248,0.0,0.0,18,0.00,,---,0.00,VWS V14.00,2013-04-24 13:18:00,
2013-04-24 06:23:00,54.0,11.4,25.31,WSW,248,0.0,0.0,18,0.00,,---,0.00,VWS V14.00,2013-04-24 13:23:00,
2013-04-24 06:28:00,55.0,12.3,25.31,WSW,248,0.0,0.0,18,0.00,,---,0.00,VWS V14.00,2013-04-24 13:28:00,
2013-04-24 06:33:00,56.5,12.2,25.31,WSW,248,0.0,0.0,17,0.00,,---,0.00,VWS V14.00,2013-04-24 13:33:00,
2013-04-24 06:39:00,57.9,13.4,25.31,WSW,248,0.0,0.0,17,0.00,,---,0.00,VWS V14.00,2013-04-24 13:39:00,
2013-04-24 06:44:00,59.4,14.6,25.31,WSW,248,0.0,0.0,17,0.00,,---,0.00,VWS V14.00,2013-04-24 13:44:00,
2013-04-24 06:49:00,60.4,15.4,25.31,WSW,248,0.0,0.0,17,0.00,,---,0.00,VWS V14.00,2013-04-24 13:49:00,
2013-04-24 06:54:00,61.5,18.9,25.31,WSW,248,0.0,0.0,19,0.00,,---,0.00,VWS V14.00,2013-04-24 13:54:00,
2013-04-24 06:59:00,62.6,18.5,25.31,WSW,248,0.0,0.0,18,0.00,,---,0.00,VWS V14.00,2013-04-24 13:59:00,
2013-04-24 07:04:00,63.5,19.3,25.31,WSW,248,0.0,0.0,18,0.00,,---,0.00,VWS V14.00,2013-04-24 14:04:00,
2013-04-24 07:09:00,64.0,19.7,25.31,North,0,0.0,0.0,18,0.00,,---,0.00,VWS V14.00,2013-04-24 14:09:00,
2013-04-24 07:14:00,64.2,19.9,25.31,North,6,0.0,0.0,18,0.00,,---,0.00,VWS V14.00,2013-04-24 14:14:00,
2013-04-24 07:19:00,64.0,19.7,25.31,NNW,343,0.0,0.0,18,0.00,,---,0.00,VWS V14.00,2013-04-24 14:19:00,
2013-04-24 07:24:00,64.0,19.7,25.31,NNW,343,0.0,0.0,18,0.00,,---,0.00,VWS V14.00,2013-04-24 14:24:00,
2013-04-24 07:29:00,64.0,19.7,25.31,NNW,343,0.0,0.0,18,0.00,,---,0.00,VWS V14.00,2013-04-24 14:29:00,
2013-04-24 07:34:00,64.4,20.0,25.31,NNW,343,0.0,0.0,18,0.00,,---,0.00,VWS V14.00,2013-04-24 14:34:00,
2013-04-24 07:39:00,65.1,20.6,25.31,North,5,0.0,0.0,18,0.00,,---,0.00,VWS V14.00,2013-04-24 14:39:00,
2013-04-24 07:44:00,65.8,21.2,25.34,North,5,0.0,0.0,18,0.00,,---,0.00,VWS V14.00,2013-04-24 14:44:00,
2013-04-24 07:49:00,66.6,20.4,25.34,NNW,348,0.0,0.0,17,0.00,,---,0.00,VWS V14.00,2013-04-24 14:49:00,
2013-04-24 07:54:00,66.7,20.6,25.34,NNW,348,0.0,0.0,17,0.00,,---,0.00,VWS V14.00,2013-04-24 14:54:00,
2013-04-24 07:59:00,67.3,21.0,25.31,NNW,348,0.0,0.0,17,0.00,,---,0.00,VWS V14.00,2013-04-24 14:59:00,
2013-04-24 08:04:00,67.8,21.5,25.31,NNW,348,0.0,0.0,17,0.00,,---,0.00,VWS V14.00,2013-04-24 15:04:00,
2013-04-24 08:09:00,68.4,21.9,25.31,NNE,32,0.0,0.0,17,0.00,,---,0.00,VWS V14.00,2013-04-24 15:09:00,
2013-04-24 08:14:00,68.9,22.3,25.31,NNE,30,0.0,0.0,17,0.00,,---,0.00,VWS V14.00,2013-04-24 15:14:00,
2013-04-24 08:19:00,69.3,22.6,25.31,NNE,32,2.7,2.7,17,0.00,,---,0.00,VWS V14.00,2013-04-24 15:19:00,
2013-04-24 08:25:00,69.8,23.1,25.31,NE,44,2.7,2.7,17,0.00,,---,0.00,VWS V14.00,2013-04-24 15:25:00,
2013-04-24 08:30:00,70.0,23.2,25.31,NNE,20,0.0,0.0,17,0.00,,---,0.00,VWS V14.00,2013-04-24 15:30:00,
2013-04-24 08:35:00,70.0,23.2,25.31,NNE,32,4.0,7.6,17,0.00,,---,0.00,VWS V14.00,2013-04-24 15:35:00,
2013-04-24 08:40:00,70.2,23.4,25.31,ENE,63,0.0,3.6,17,0.00,,---,0.00,VWS V14.00,2013-04-24 15:40:00,
2013-04-24 08:45:00,70.2,23.4,25.31,NE,38,4.9,5.4,17,0.00,,---,0.00,VWS V14.00,2013-04-24 15:45:00,
2013-04-24 08:50:00,70.5,23.6,25.31,NNE,29,0.0,0.0,17,0.00,,---,0.00,VWS V14.00,2013-04-24 15:50:00,
2013-04-24 08:55:00,71.1,24.1,25.31,NNE,31,2.7,5.4,17,0.00,,---,0.00,VWS V14.00,2013-04-24 15:55:00,
2013-04-24 09:00:00,72.1,23.5,25.31,NNE,31,4.0,5.8,16,0.00,,---,0.00,VWS V14.00,2013-04-24 16:00:00,
2013-04-24 09:05:00,72.7,23.9,25.31,NE,43,6.3,8.1,16,0.00,,---,0.00,VWS V14.00,2013-04-24 16:05:00,
2013-04-24 09:10:00,73.0,24.2,25.31,NNW,327,0.0,8.3,16,0.00,,---,0.00,VWS V14.00,2013-04-24 16:10:00,
2013-04-24 09:15:00,72.9,24.1,25.31,East,84,4.5,4.5,16,0.00,,---,0.00,VWS V14.00,2013-04-24 16:15:00,
2013-04-24 09:20:00,72.9,24.1,25.31,East,93,3.1,3.1,16,0.00,,---,0.00,VWS V14.00,2013-04-24 16:20:00,
2013-04-24 09:25:00,73.2,24.4,25.31,South,176,8.7,8.7,16,0.00,,---,0.00,VWS V14.00,2013-04-24 16:25:00,
2013-04-24 09:30:00,73.9,25.0,25.31,SSE,155,3.1,5.8,16,0.00,,---,0.00,VWS V14.00,2013-04-24 16:30:00,
2013-04-24 09:35:00,74.5,25.4,25.31,South,173,10.1,11.0,16,0.00,,---,0.00,VWS V14.00,2013-04-24 16:35:00,
2013-04-24 09:40:00,75.4,24.6,25.31,South,189,6.7,8.7,15,0.00,,---,0.00,VWS V14.00,2013-04-24 16:40:00,
2013-04-24 09:45:00,75.7,24.9,25.31,SSW,208,13.2,13.2,15,0.00,,---,0.00,VWS V14.00,2013-04-24 16:45:00,
2013-04-24 09:50:00,75.2,24.4,25.31,SSW,203,4.0,4.0,15,0.00,,---,0.00,VWS V14.00,2013-04-24 16:50:00,
2013-04-24 09:55:00,75.4,24.6,25.31,South,179,8.3,8.3,15,0.00,,---,0.00,VWS V14.00,2013-04-24 16:55:00,
2013-04-24 10:00:00,75.9,25.0,25.31,ESE,123,3.6,6.3,15,0.00,,---,0.00,VWS V14.00,2013-04-24 17:00:00,
2013-04-24 10:05:00,76.3,25.3,25.31,South,183,7.6,7.6,15,0.00,,---,0.00,VWS V14.00,2013-04-24 17:05:00,
2013-04-24 10:10:00,76.3,25.3,25.31,SSE,153,5.4,6.3,15,0.00,,---,0.00,VWS V14.00,2013-04-24 17:10:00,
2013-04-24 10:15:00,76.1,25.1,25.31,South,170,4.0,4.0,15,0.00,,---,0.00,VWS V14.00,2013-04-24 17:15:00,
2013-04-24 10:20:00,76.1,25.1,25.31,SSW,203,5.8,10.1,15,0.00,,---,0.00,VWS V14.00,2013-04-24 17:20:00,
2013-04-24 10:25:00,76.5,25.4,25.31,South,181,12.3,12.3,15,0.00,,---,0.00,VWS V14.00,2013-04-24 17:25:00,
2013-04-24 10:30:00,76.6,25.6,25.31,SSE,148,8.7,8.7,15,0.00,,---,0.00,VWS V14.00,2013-04-24 17:30:00,
2013-04-24 10:35:00,76.6,25.6,25.31,SSE,155,3.1,3.6,15,0.00,,---,0.00,VWS V14.00,2013-04-24 17:35:00,
2013-04-24 10:40:00,76.8,25.7,25.31,SE,124,7.6,10.5,15,0.00,,---,0.00,VWS V14.00,2013-04-24 17:40:00,
2013-04-24 10:45:00,76.8,25.7,25.31,SE,131,10.5,10.5,15,0.00,,---,0.00,VWS V14.00,2013-04-24 17:45:00,
2013-04-24 10:50:00,76.8,25.7,25.31,SE,142,8.1,11.4,15,0.00,,---,0.00,VWS V14.00,2013-04-24 17:50:00,
2013-04-24 10:55:00,76.6,25.6,25.31,SE,142,11.0,11.0,15,0.00,,---,0.00,VWS V14.00,2013-04-24 17:55:00,
2013-04-24 11:00:00,77.2,26.0,25.31,SSW,200,2.7,5.8,15,0.00,,---,0.00,VWS V14.00,2013-04-24 18:00:00,
2013-04-24 11:05:00,77.5,26.3,25.31,SSE,163,8.1,8.1,15,0.00,,---,0.00,VWS V14.00,2013-04-24 18:05:00,
2013-04-24 11:10:00,77.7,26.4,25.31,WSW,252,0.0,3.1,15,0.00,,---,0.00,VWS V14.00,2013-04-24 18:10:00,
2013-04-24 11:15:00,77.7,26.4,25.31,South,179,7.6,7.6,15,0.00,,---,0.00,VWS V14.00,2013-04-24 18:15:00,
2013-04-24 11:20:00,78.1,26.7,25.31,SSE,160,7.6,7.6,15,0.00,,---,0.00,VWS V14.00,2013-04-24 18:20:00,
2013-04-24 11:25:00,78.4,27.0,25.31,South,181,5.4,5.8,15,0.00,,---,0.00,VWS V14.00,2013-04-24 18:25:00,
2013-04-24 11:30:00,79.0,27.4,25.31,South,169,8.3,8.3,15,0.00,,---,0.00,VWS V14.00,2013-04-24 18:30:00,
2013-04-24 11:35:00,79.3,27.7,25.31,South,188,10.1,11.0,15,0.00,,---,0.00,VWS V14.00,2013-04-24 18:35:00,
2013-04-24 11:40:00,79.9,28.1,25.31,South,185,7.2,8.3,15,0.00,,---,0.00,VWS V14.00,2013-04-24 18:40:00,
2013-04-24 11:45:00,80.1,28.3,25.28,SW,227,7.2,7.2,15,0.00,,---,0.00,VWS V14.00,2013-04-24 18:45:00,
2013-04-24 11:50:00,80.2,28.4,25.28,South,186,8.7,8.7,15,0.00,,---,0.00,VWS V14.00,2013-04-24 18:50:00,
2013-04-24 11:55:00,80.6,27.0,25.28,SSE,164,6.3,8.7,14,0.00,,---,0.00,VWS V14.00,2013-04-24 18:55:00,
2013-04-24 12:00:00,80.6,27.0,25.28,South,185,8.7,8.7,14,0.00,,---,0.00,VWS V14.00,2013-04-24 19:00:00,
2013-04-24 12:05:00,80.2,28.4,25.28,SE,133,0.0,6.3,15,0.00,,---,0.00,VWS V14.00,2013-04-24 19:05:00,
2013-04-24 12:10:00,80.4,28.6,25.28,SW,227,7.6,10.1,15,0.00,,---,0.00,VWS V14.00,2013-04-24 19:10:00,
2013-04-24 12:15:00,79.9,28.1,25.28,West,262,8.3,10.1,15,0.00,,---,0.00,VWS V14.00,2013-04-24 19:15:00,
2013-04-24 12:20:00,79.7,28.0,25.28,South,187,10.5,12.8,15,0.00,,---,0.00,VWS V14.00,2013-04-24 19:20:00,
2013-04-24 12:25:00,79.9,28.1,25.28,SE,125,6.3,10.1,15,0.00,,---,0.00,VWS V14.00,2013-04-24 19:25:00,
2013-04-24 12:30:00,79.5,27.9,25.28,ESE,116,0.0,5.8,15,0.00,,---,0.00,VWS V14.00,2013-04-24 19:30:00,
2013-04-24 12:35:00,80.4,28.6,25.28,South,183,8.3,12.8,15,0.00,,---,0.00,VWS V14.00,2013-04-24 19:35:00,
2013-04-24 12:40:00,81.0,27.3,25.28,SW,231,0.0,5.4,14,0.00,,---,0.00,VWS V14.00,2013-04-24 19:40:00,
2013-04-24 12:45:00,81.0,27.3,25.28,SSE,159,10.1,10.1,14,0.00,,---,0.00,VWS V14.00,2013-04-24 19:45:00,
2013-04-24 12:51:00,81.1,27.5,25.28,SSE,149,8.1,8.3,14,0.00,,---,0.00,VWS V14.00,2013-04-24 19:51:00,
2013-04-24 12:56:00,81.1,27.5,25.28,South,173,5.8,8.3,14,0.00,,---,0.00,VWS V14.00,2013-04-24 19:56:00,
2013-04-24 13:01:00,81.5,27.8,25.28,SSW,204,7.6,8.1,14,0.00,,---,0.00,VWS V14.00,2013-04-24 20:01:00,
2013-04-24 13:06:00,81.5,27.8,25.28,SSE,168,3.1,3.1,14,0.00,,---,0.00,VWS V14.00,2013-04-24 20:06:00,
2013-04-24 13:11:00,81.3,27.6,25.28,WSW,240,11.9,21.9,14,0.00,,---,0.00,VWS V14.00,2013-04-24 20:11:00,
2013-04-24 13:16:00,81.0,27.3,25.28,South,172,5.8,11.0,14,0.00,,---,0.00,VWS V14.00,2013-04-24 20:16:00,
2013-04-24 13:21:00,80.8,27.2,25.28,SW,223,5.8,6.3,14,0.00,,---,0.00,VWS V14.00,2013-04-24 20:21:00,
2013-04-24 13:26:00,81.3,27.6,25.28,South,190,10.1,11.0,14,0.00,,---,0.00,VWS V14.00,2013-04-24 20:26:00,
2013-04-24 13:31:00,81.7,27.9,25.28,South,178,9.2,13.2,14,0.00,,---,0.00,VWS V14.00,2013-04-24 20:31:00,
2013-04-24 13:36:00,82.2,28.3,25.28,SSW,204,12.8,12.8,14,0.00,,---,0.00,VWS V14.00,2013-04-24 20:36:00,
2013-04-24 13:41:00,82.2,28.3,25.28,SSE,148,8.3,8.3,14,0.00,,---,0.00,VWS V14.00,2013-04-24 20:41:00,
2013-04-24 13:46:00,82.0,28.2,25.28,SE,126,3.6,3.6,14,0.00,,---,0.00,VWS V14.00,2013-04-24 20:46:00,
2013-04-24 13:51:00,82.2,28.3,25.28,ESE,123,0.0,0.0,14,0.00,,---,0.00,VWS V14.00,2013-04-24 20:51:00,
2013-04-24 13:56:00,82.6,28.6,25.28,SSW,213,5.8,5.8,14,0.00,,---,0.00,VWS V14.00,2013-04-24 20:56:00,
2013-04-24 14:01:00,82.6,28.6,25.25,SSW,201,8.3,8.3,14,0.00,,---,0.00,VWS V14.00,2013-04-24 21:01:00,
2013-04-24 14:06:00,82.9,28.9,25.25,SE,138,15.4,15.4,14,0.00,,---,0.00,VWS V14.00,2013-04-24 21:06:00,
2013-04-24 14:11:00,83.5,29.3,25.25,WSW,239,7.6,7.6,14,0.00,,---,0.00,VWS V14.00,2013-04-24 21:11:00,
2013-04-24 14:16:00,83.1,29.0,25.25,ESE,120,2.7,5.4,14,0.00,,---,0.00,VWS V14.00,2013-04-24 21:16:00,
2013-04-24 14:21:00,82.8,28.8,25.25,NNW,334,3.1,5.4,14,0.00,,---,0.00,VWS V14.00,2013-04-24 21:21:00,
2013-04-24 14:26:00,83.1,29.0,25.25,South,180,9.6,11.9,14,0.00,,---,0.00,VWS V14.00,2013-04-24 21:26:00,
2013-04-24 14:31:00,83.5,29.3,25.25,South,169,12.8,12.8,14,0.00,,---,0.00,VWS V14.00,2013-04-24 21:31:00,
2013-04-24 14:36:00,83.3,29.2,25.25,SW,219,2.7,6.3,14,0.00,,---,0.00,VWS V14.00,2013-04-24 21:36:00,
2013-04-24 14:41:00,83.7,29.5,25.25,SSE,166,10.5,13.2,14,0.00,,---,0.00,VWS V14.00,2013-04-24 21:41:00,
2013-04-24 14:46:00,83.7,29.5,25.25,South,188,3.1,3.6,14,0.00,,---,0.00,VWS V14.00,2013-04-24 21:46:00,
2013-04-24 14:51:00,83.7,29.5,25.25,West,281,5.4,8.3,14,0.00,,---,0.00,VWS V14.00,2013-04-24 21:51:00,
2013-04-24 14:56:00,83.5,29.3,25.25,SW,230,8.7,8.7,14,0.00,,---,0.00,VWS V14.00,2013-04-24 21:56:00,
2013-04-24 15:01:00,83.5,29.3,25.25,WNW,288,8.3,9.6,14,0.00,,---,0.00,VWS V14.00,2013-04-24 22:01:00,
2013-04-24 15:06:00,83.7,29.5,25.25,SSW,209,2.7,3.6,14,0.00,,---,0.00,VWS V14.00,2013-04-24 22:06:00,
2013-04-24 15:11:00,83.5,29.3,25.25,SSE,166,8.7,8.7,14,0.00,,---,0.00,VWS V14.00,2013-04-24 22:11:00,
2013-04-24 15:16:00,83.3,29.2,25.22,South,181,2.7,3.1,14,0.00,,---,0.00,VWS V14.00,2013-04-24 22:16:00,
2013-04-24 15:21:00,83.7,29.5,25.22,SSW,193,7.6,7.6,14,0.00,,---,0.00,VWS V14.00,2013-04-24 22:21:00,
2013-04-24 15:26:00,84.4,28.2,25.22,SSW,197,7.6,12.3,13,0.00,,---,0.00,VWS V14.00,2013-04-24 22:26:00,
2013-04-24 15:31:00,84.6,28.4,25.22,WSW,239,7.6,8.7,13,0.00,,---,0.00,VWS V14.00,2013-04-24 22:31:00,
2013-04-24 15:36:00,84.0,29.8,25.22,WNW,285,6.3,10.5,14,0.00,,---,0.00,VWS V14.00,2013-04-24 22:36:00,
2013-04-24 15:41:00,83.7,29.5,25.22,WSW,239,8.3,17.4,14,0.00,,---,0.00,VWS V14.00,2013-04-24 22:41:00,
2013-04-24 15:46:00,83.3,29.2,25.22,WSW,247,11.0,11.0,14,0.00,,---,0.00,VWS V14.00,2013-04-24 22:46:00,
2013-04-24 15:51:00,83.5,29.3,25.22,WSW,245,8.3,10.5,14,0.00,,---,0.00,VWS V14.00,2013-04-24 22:51:00,
2013-04-24 15:56:00,83.5,29.3,25.22,SSW,200,9.2,11.0,14,0.00,,---,0.00,VWS V14.00,2013-04-24 22:56:00,
2013-04-24 16:01:00,83.3,29.2,25.22,SSE,156,6.3,8.1,14,0.00,,---,0.00,VWS V14.00,2013-04-24 23:01:00,
2013-04-24 16:06:00,82.4,28.5,25.22,SE,134,0.0,0.0,14,0.00,,---,0.00,VWS V14.00,2013-04-24 23:06:00,
2013-04-24 16:11:00,81.7,27.9,25.22,NE,51,0.0,0.0,14,0.00,,---,0.00,VWS V14.00,2013-04-24 23:11:00,
2013-04-24 16:16:00,82.2,28.3,25.22,WSW,257,3.1,3.1,14,0.00,,---,0.00,VWS V14.00,2013-04-24 23:16:00,
2013-04-24 16:21:00,83.3,29.2,25.22,West,279,6.3,8.7,14,0.00,,---,0.00,VWS V14.00,2013-04-24 23:21:00,
2013-04-24 16:26:00,83.3,29.2,25.22,West,263,9.2,15.4,14,0.00,,---,0.00,VWS V14.00,2013-04-24 23:26:00,
2013-04-24 16:32:00,82.0,28.2,25.22,WSW,250,12.8,15.0,14,0.00,,---,0.00,VWS V14.00,2013-04-24 23:32:00,
2013-04-24 16:37:00,81.0,27.3,25.22,NW,304,6.3,6.7,14,0.00,,---,0.00,VWS V14.00,2013-04-24 23:37:00,
2013-04-24 16:42:00,81.0,27.3,25.22,WSW,250,5.4,11.9,14,0.00,,---,0.00,VWS V14.00,2013-04-24 23:42:00,
2013-04-24 16:47:00,81.1,27.5,25.22,WSW,252,4.0,5.8,14,0.00,,---,0.00,VWS V14.00,2013-04-24 23:47:00,
2013-04-24 16:52:00,81.1,27.5,25.22,WSW,240,0.0,5.8,14,0.00,,---,0.00,VWS V14.00,2013-04-24 23:52:00,
2013-04-24 16:57:00,80.8,27.2,25.22,SW,226,5.8,6.7,14,0.00,,---,0.00,VWS V14.00,2013-04-24 23:57:00,
2013-04-24 17:02:00,81.1,27.5,25.22,SW,229,8.7,13.2,14,0.00,,---,0.00,VWS V14.00,2013-04-25 00:02:00,
2013-04-24 17:07:00,82.0,28.2,25.22,South,174,2.2,4.0,14,0.00,,---,0.00,VWS V14.00,2013-04-25 00:07:00,
2013-04-24 17:12:00,82.0,28.2,25.22,West,275,7.6,7.6,14,0.00,,---,0.00,VWS V14.00,2013-04-25 00:12:00,
2013-04-24 17:17:00,81.0,27.3,25.22,SW,234,7.6,8.7,14,0.00,,---,0.00,VWS V14.00,2013-04-25 00:17:00,
2013-04-24 17:22:00,81.0,27.3,25.22,SW,223,4.0,8.7,14,0.00,,---,0.00,VWS V14.00,2013-04-25 00:22:00,
2013-04-24 17:27:00,81.5,27.8,25.22,SW,220,6.3,10.1,14,0.00,,---,0.00,VWS V14.00,2013-04-25 00:27:00,
2013-04-24 17:32:00,81.0,27.3,25.22,WSW,255,3.6,8.3,14,0.00,,---,0.00,VWS V14.00,2013-04-25 00:32:00,
2013-04-24 17:37:00,80.1,28.3,25.22,WNW,300,4.9,4.9,15,0.00,,---,0.00,VWS V14.00,2013-04-25 00:37:00,
2013-04-24 17:42:00,79.9,28.1,25.22,WNW,284,9.6,9.6,15,0.00,,---,0.00,VWS V14.00,2013-04-25 00:42:00,
2013-04-24 17:47:00,79.5,27.9,25.22,WSW,243,6.3,13.2,15,0.00,,---,0.00,VWS V14.00,2013-04-25 00:47:00,
2013-04-24 17:52:00,79.0,27.4,25.22,WSW,246,8.1,10.5,15,0.00,,---,0.00,VWS V14.00,2013-04-25 00:52:00,
2013-04-24 17:57:00,78.6,27.1,25.22,WNW,284,5.8,10.1,15,0.00,,---,0.00,VWS V14.00,2013-04-25 00:57:00,
2013-04-24 18:02:00,78.1,26.7,25.22,WNW,282,8.7,8.7,15,0.00,,---,0.00,VWS V14.00,2013-04-25 01:02:00,
2013-04-24 18:07:00,77.7,26.4,25.22,West,278,8.7,13.2,15,0.00,,---,0.00,VWS V14.00,2013-04-25 01:07:00,
2013-04-24 18:12:00,77.4,26.1,25.22,West,266,5.4,5.4,15,0.00,,---,0.00,VWS V14.00,2013-04-25 01:12:00,
2013-04-24 18:17:00,77.2,26.0,25.22,West,277,6.3,10.5,15,0.00,,---,0.00,VWS V14.00,2013-04-25 01:17:00,
2013-04-24 18:22:00,76.8,25.7,25.22,West,263,8.7,8.7,15,0.00,,---,0.00,VWS V14.00,2013-04-25 01:22:00,
2013-04-24 18:27:00,76.6,25.6,25.25,WSW,253,10.5,13.2,15,0.00,,---,0.00,VWS V14.00,2013-04-25 01:27:00,
2013-04-24 18:32:00,76.5,25.4,25.25,West,270,9.2,9.2,15,0.00,,---,0.00,VWS V14.00,2013-04-25 01:32:00,
2013-04-24 18:37:00,76.1,25.1,25.25,WSW,248,6.7,6.7,15,0.00,,---,0.00,VWS V14.00,2013-04-25 01:37:00,
2013-04-24 18:42:00,75.9,25.0,25.25,West,271,5.8,5.8,15,0.00,,---,0.00,VWS V14.00,2013-04-25 01:42:00,
2013-04-24 18:47:00,75.7,24.9,25.25,WSW,258,10.1,10.1,15,0.00,,---,0.00,VWS V14.00,2013-04-25 01:47:00,
2013-04-24 18:52:00,75.7,24.9,25.25,West,275,9.6,10.5,15,0.00,,---,0.00,VWS V14.00,2013-04-25 01:52:00,
2013-04-24 18:57:00,75.6,24.7,25.25,WSW,253,5.4,5.8,15,0.00,,---,0.00,VWS V14.00,2013-04-25 01:57:00,
2013-04-24 19:02:00,75.4,24.6,25.25,WSW,254,7.6,8.7,15,0.00,,---,0.00,VWS V14.00,2013-04-25 02:02:00,
2013-04-24 19:07:00,75.0,25.8,25.25,West,273,5.8,5.8,16,0.00,,---,0.00,VWS V14.00,2013-04-25 02:07:00,
2013-04-24 19:12:00,74.7,25.5,25.25,West,265,10.1,10.5,16,0.00,,---,0.00,VWS V14.00,2013-04-25 02:12:00,
2013-04-24 19:17:00,74.5,25.4,25.25,WNW,283,8.1,8.7,16,0.00,,---,0.00,VWS V14.00,2013-04-25 02:17:00,
2013-04-24 19:22:00,74.1,25.1,25.25,West,279,8.7,8.7,16,0.00,,---,0.00,VWS V14.00,2013-04-25 02:22:00,
2013-04-24 19:27:00,73.8,24.8,25.25,WSW,246,8.1,8.3,16,0.00,,---,0.00,VWS V14.00,2013-04-25 02:27:00,
2013-04-24 19:32:00,73.8,24.8,25.25,SW,225,8.1,8.1,16,0.00,,---,0.00,VWS V14.00,2013-04-25 02:32:00,
2013-04-24 19:37:00,74.1,25.1,25.25,WSW,256,10.5,12.8,16,0.00,,---,0.00,VWS V14.00,2013-04-25 02:37:00,
2013-04-24 19:42:00,74.1,25.1,25.28,WSW,246,12.3,12.8,16,0.00,,---,0.00,VWS V14.00,2013-04-25 02:42:00,
2013-04-24 19:47:00,74.1,25.1,25.28,SW,231,10.5,11.9,16,0.00,,---,0.00,VWS V14.00,2013-04-25 02:47:00,
2013-04-24 19:52:00,74.1,25.1,25.28,WSW,249,12.3,13.2,16,0.00,,---,0.00,VWS V14.00,2013-04-25 02:52:00,
2013-04-24 19:57:00,73.9,25.0,25.28,SW,225,12.3,12.3,16,0.00,,---,0.00,VWS V14.00,2013-04-25 02:57:00,
2013-04-24 20:02:00,73.9,25.0,25.28,SW,233,5.4,5.8,16,0.00,,---,0.00,VWS V14.00,2013-04-25 03:02:00,
2013-04-24 20:07:00,73.8,24.8,25.28,SW,231,4.9,8.1,16,0.00,,---,0.00,VWS V14.00,2013-04-25 03:07:00,
2013-04-24 20:12:00,73.6,24.7,25.28,WSW,242,7.2,8.7,16,0.00,,---,0.00,VWS V14.00,2013-04-25 03:12:00,
2013-04-24 20:17:00,73.6,24.7,25.28,WSW,244,11.4,11.4,16,0.00,,---,0.00,VWS V14.00,2013-04-25 03:17:00,
2013-04-24 20:22:00,73.4,24.5,25.28,SW,223,10.1,13.2,16,0.00,,---,0.00,VWS V14.00,2013-04-25 03:22:00,
2013-04-24 20:27:00,73.4,24.5,25.28,SW,225,8.3,8.3,16,0.00,,---,0.00,VWS V14.00,2013-04-25 03:27:00,
2013-04-24 20:32:00,73.2,24.4,25.28,WSW,243,5.4,7.6,16,0.00,,---,0.00,VWS V14.00,2013-04-25 03:32:00,
2013-04-24 20:37:00,72.9,24.1,25.28,WSW,244,6.3,6.3,16,0.00,,---,0.00,VWS V14.00,2013-04-25 03:37:00,
2013-04-24 20:42:00,72.7,23.9,25.28,SW,230,4.0,5.8,16,0.00,,---,0.00,VWS V14.00,2013-04-25 03:42:00,
2013-04-24 20:47:00,72.5,23.8,25.28,SW,235,0.0,0.0,16,0.00,,---,0.00,VWS V14.00,2013-04-25 03:47:00,
2013-04-24 20:52:00,72.1,23.5,25.28,SW,235,0.0,0.0,16,0.00,,---,0.00,VWS V14.00,2013-04-25 03:52:00,
2013-04-24 20:57:00,71.6,23.1,25.28,SE,127,0.0,0.0,16,0.00,,---,0.00,VWS V14.00,2013-04-25 03:57:00,
2013-04-24 21:01:00,71.4,24.4,25.28,South,187,3.6,4.0,17,0.00,,---,0.00,VWS V14.00,2013-04-25 04:01:00,
2013-04-24 21:02:00,71.2,24.2,25.28,SSE,158,4.9,5.4,17,0.00,,---,0.00,VWS V14.00,2013-04-25 04:02:00,
2013-04-24 21:03:00,71.1,24.1,25.28,SSE,164,4.0,4.0,17,0.00,,---,0.00,VWS V14.00,2013-04-25 04:03:00,
2013-04-24 21:08:00,71.1,24.1,25.28,SW,225,13.2,13.2,17,0.00,,---,0.00,VWS V14.00,2013-04-25 04:08:00,
2013-04-24 21:13:00,72.1,23.5,25.28,SSW,212,5.8,11.0,16,0.00,,---,0.00,VWS V14.00,2013-04-25 04:13:00,
2013-04-24 21:18:00,72.7,23.9,25.28,SSW,196,3.6,5.4,16,0.00,,---,0.00,VWS V14.00,2013-04-25 04:18:00,
2013-04-24 21:23:00,72.7,23.9,25.28,SSW,213,9.6,12.3,16,0.00,,---,0.00,VWS V14.00,2013-04-25 04:23:00,
2013-04-24 21:28:00,72.7,23.9,25.28,SW,223,8.1,8.1,16,0.00,,---,0.00,VWS V14.00,2013-04-25 04:28:00,
2013-04-24 21:33:00,72.5,23.8,25.28,SW,221,5.4,9.6,16,0.00,,---,0.00,VWS V14.00,2013-04-25 04:33:00,
2013-04-24 21:38:00,72.3,23.6,25.28,SSW,209,5.8,8.7,16,0.00,,---,0.00,VWS V14.00,2013-04-25 04:38:00,
2013-04-24 21:43:00,72.1,23.5,25.28,South,185,4.0,7.6,16,0.00,,---,0.00,VWS V14.00,2013-04-25 04:43:00,
2013-04-24 21:48:00,72.0,23.4,25.28,South,181,0.0,0.0,16,0.00,,---,0.00,VWS V14.00,2013-04-25 04:48:00,
2013-04-24 21:53:00,71.4,24.4,25.28,ENE,75,0.0,0.0,17,0.00,,---,0.00,VWS V14.00,2013-04-25 04:53:00,
2013-04-24 21:58:00,70.5,23.6,25.28,ENE,75,2.7,2.7,17,0.00,,---,0.00,VWS V14.00,2013-04-25 04:58:00,
2013-04-24 22:03:00,69.6,22.9,25.28,East,84,3.1,4.9,17,0.00,,---,0.00,VWS V14.00,2013-04-25 05:03:00,
2013-04-24 22:08:00,68.9,22.3,25.28,ESE,111,4.0,4.0,17,0.00,,---,0.00,VWS V14.00,2013-04-25 05:08:00,
2013-04-24 22:14:00,68.5,22.0,25.25,SE,137,0.0,0.0,17,0.00,,---,0.00,VWS V14.00,2013-04-25 05:14:00,
2013-04-24 22:19:00,68.4,21.9,25.25,SE,133,4.0,4.9,17,0.00,,---,0.00,VWS V14.00,2013-04-25 05:19:00,
2013-04-24 22:24:00,68.4,21.9,25.25,SE,129,0.0,0.0,17,0.00,,---,0.00,VWS V14.00,2013-04-25 05:24:00,
2013-04-24 22:29:00,68.0,21.6,25.28,ESE,116,4.0,4.0,17,0.00,,---,0.00,VWS V14.00,2013-04-25 05:29:00,
2013-04-24 22:34:00,67.6,21.3,25.28,SE,137,4.0,5.4,17,0.00,,---,0.00,VWS V14.00,2013-04-25 05:34:00,
2013-04-24 22:39:00,67.5,21.2,25.28,SE,127,3.6,4.0,17,0.00,,---,0.00,VWS V14.00,2013-04-25 05:39:00,
2013-04-24 22:44:00,67.5,21.2,25.28,SE,131,0.0,2.7,17,0.00,,---,0.00,VWS V14.00,2013-04-25 05:44:00,
2013-04-24 22:49:00,67.3,21.0,25.28,SE,131,0.0,0.0,17,0.00,,---,0.00,VWS V14.00,2013-04-25 05:49:00,
2013-04-24 22:54:00,66.9,20.7,25.28,SE,135,0.0,0.0,17,0.00,,---,0.00,VWS V14.00,2013-04-25 05:54:00,
2013-04-24 22:59:00,66.4,20.3,25.28,WSW,254,0.0,0.0,17,0.00,,---,0.00,VWS V14.00,2013-04-25 05:59:00,
2013-04-24 23:04:00,66.0,21.3,25.28,West,271,6.7,8.3,18,0.00,,---,0.00,VWS V14.00,2013-04-25 06:04:00,
2013-04-24 23:09:00,66.6,20.4,25.28,WSW,253,0.0,2.2,17,0.00,,---,0.00,VWS V14.00,2013-04-25 06:09:00,
2013-04-24 23:14:00,66.9,20.7,25.28,West,265,3.1,4.9,17,0.00,,---,0.00,VWS V14.00,2013-04-25 06:14:00,
2013-04-24 23:19:00,67.3,21.0,25.28,West,265,0.0,0.0,17,0.00,,---,0.00,VWS V14.00,2013-04-25 06:19:00,
2013-04-24 23:24:00,67.3,21.0,25.28,WSW,248,0.0,0.0,17,0.00,,---,0.00,VWS V14.00,2013-04-25 06:24:00,
2013-04-24 23:29:00,67.5,21.2,25.28,SW,232,2.7,4.9,17,0.00,,---,0.00,VWS V14.00,2013-04-25 06:29:00,
2013-04-24 23:34:00,67.5,21.2,25.28,WSW,257,2.7,2.7,17,0.00,,---,0.00,VWS V14.00,2013-04-25 06:34:00,
2013-04-24 23:39:00,67.3,21.0,25.28,WSW,257,0.0,0.0,17,0.00,,---,0.00,VWS V14.00,2013-04-25 06:39:00,
2013-04-24 23:44:00,66.7,20.6,25.28,SE,139,2.7,3.6,17,0.00,,---,0.00,VWS V14.00,2013-04-25 06:44:00,
2013-04-24 23:49:00,66.2,20.1,25.28,SE,139,0.0,0.0,17,0.00,,---,0.00,VWS V14.00,2013-04-25 06:49:00,
2013-04-24 23:54:00,66.2,20.1,25.28,SSW,204,4.0,6.3,17,0.00,,---,0.00,VWS V14.00,2013-04-25 06:54:00,
2013-04-24 23:59:00,67.6,21.3,25.28,SE,128,0.0,0.0,17,0.00,,---,0.00,VWS V14.00,2013-04-25 06:59:00,